Wind_Speed
11 11 10 9 9 8 8 7 7 7 7 7 5 3 2 3 4 5 3 5 8 11 10 5 4 2 1 5 5 6 3 8 14 13 13 14 12 11 15 17 12 5 27 26 25
13 12 11 10 9 8 8 7 6 7 7 6 4 3 3 4 6 6 6 9 13 10 10 6 4 3 5 5 2 5 8 13 13 15 12 13 16 19 14 14 17 25 25 26 24
13 13 12 11 10 9 8 7 6 6 6 5 4 4 4 7 6 6 4 11 11 11 6 2 5 4 5 7 11 6 12 13 7 16 15 16 16 14 16 14 17 23 26 25 22
14 14 13 12 10 9 8 6 6 6 5 4 3 4 6 6 1 8 8 11 11 7 6 4 7 6 5 5 12 4 10 15 14 14 13 15 15 13 6 16 18 23 23 23 20
15 14 13 12 10 9 8 6 6 6 4 3 3 6 7 7 8 11 11 12 10 5 7 6 12 7 3 5 12 6 13 16 15 13 16 12 13 10 11 17 22 22 21 19 18
16 14 13 12 11 9 7 6 6 6 3 3 5 8 7 5 7 12 10 9 6 5 3 4 2 5 9 3 5 5 14 18 12 15 11 15 12 10 14 20 22 20 19 17 15
17 15 13 11 11 8 8 7 6 5 3 5 7 9 6 6 9 15 14 9 7 7 1 1 4 9 9 9 6 19 15 15 13 12 10 14 14 11 19 21 21 18 17 15 15
17 16 14 11 9 8 6 5 4 4 4 6 9 8 1 5 9 16 14 10 8 6 4 3 5 7 8 10 13 8 9 10 15 11 9 10 11 15 19 21 19 17 16 15 15
17 17 15 11 8 7 4 3 1 3 5 8 8 7 8 7 12 15 14 10 8 6 5 5 3 4 7 13 12 9 5 12 13 13 10 13 15 17 20 20 19 17 15 15 16
17 16 15 11 7 5 3 3 4 5 6 9 5 7 8 13 12 14 14 8 8 8 8 9 10 9 8 2 3 5 12 8 15 14 14 11 17 16 21 20 19 19 17 17 16
17 16 15 11 6 2 2 2 2 4 12 9 15 5 10 10 11 14 15 11 9 9 14 15 13 12 15 4 14 2 13 4 20 13 15 12 16 18 21 20 19 20 17 17 17
18 16 13 10 4 1 3 5 5 5 10 12 6 8 6 8 12 14 16 15 13 13 10 7 13 11 1 4 4 6 7 5 6 14 11 18 18 17 17 18 19 18 20 20 19
18 17 12 8 3 3 2 0 4 5 9 18 14 16 14 12 15 18 18 21 12 15 11 16 5 7 4 7 9 11 11 6 5 10 19 15 10 18 17 17 17 18 17 19 20
19 16 11 5 3 5 4 2 6 5 6 16 15 16 10 12 16 14 19 18 14 15 13 14 6 8 9 11 9 17 7 7 15 15 1 10 1 7 17 16 17 17 20 18 21
20 16 10 4 5 7 2 3 4 5 5 8 17 7 13 16 7 14 15 19 17 15 8 14 15 9 12 9 9 7 4 9 11 12 9 7 11 11 22 17 18 20 18 20 20
19 15 7 3 7 6 6 4 3 7 4 7 7 12 16 18 12 13 14 15 15 17 13 16 4 5 13 2 8 3 6 5 9 12 13 11 11 10 11 15 18 19 20 17 19
17 11 4 4 2 5 5 7 7 9 5 5 7 12 16 16 16 11 16 18 15 13 15 17 13 10 8 12 6 11 14 9 11 10 10 4 6 12 13 6 3 6 22 23 18
12 7 2 5 5 6 7 10 10 2 3 4 5 8 15 17 17 15 14 14 19 18 14 15 15 16 14 18 13 16 18 13 12 12 7 10 8 10 11 7 4 8 11 23 25
7 5 1 4 5 8 12 10 9 12 3 4 8 11 14 17 13 17 15 16 18 19 16 11 19 15 13 15 10 15 17 17 15 16 10 8 10 10 12 8 5 8 13 17 24
3 4 2 2 5 9 9 14 4 4 4 8 12 5 12 15 15 16 16 14 17 16 18 17 11 13 9 6 9 16 8 14 10 16 17 14 10 10 14 13 11 7 21 21 26
1 7 0 2 5 11 9 13 10 8 5 7 11 11 10 17 14 17 14 15 13 9 10 17 12 11 12 14 16 13 15 15 16 13 9 10 3 11 13 14 14 13 15 18 23
5 3 3 6 11 10 11 9 5 5 9 10 5 11 13 11 15 13 19 16 19 13 12 17 12 14 14 5 8 10 10 17 14 16 12 11 2 8 11 21 22 18 16 16 20
8 3 4 6 6 7 2 8 5 11 10 10 10 11 12 10 10 17 19 10 9 8 9 13 11 15 9 11 8 13 15 13 17 14 15 8 6 9 19 15 14 18 15 14 16
6 4 7 9 7 9 2 7 5 6 10 13 13 13 15 14 13 12 16 7 6 10 3 6 14 15 7 15 10 18 13 7 13 10 11 13 14 11 18 14 15 15 17 17 17
4 3 5 2 5 4 3 5 8 7 6 9 10 14 16 16 17 16 15 6 6 3 6 11 16 12 7 5 12 4 11 6 9 10 14 17 12 18 19 16 19 20 18 18 15
8 6 3 12 5 7 6 4 6 8 9 12 14 14 16 16 17 14 17 7 11 10 13 16 12 4 3 3 4 6 3 7 9 9 11 13 13 16 19 21 20 19 19 17 14
8 6 7 2 9 9 4 5 7 8 8 7 11 11 12 13 17 12 10 8 4 5 13 12 10 8 11 2 5 10 9 9 6 8 8 11 13 17 14 20 20 17 15 14 13
Wind_Direction
351 344 336 328 319 312 309 304 305 306 307 301 305 271 232 185 184 169 222 224 181 169 144 149 171 169 213 253 263 266 250 92 104 113 114 129 112 89 109 127 133 96 141 144 148
355 349 343 337 326 315 308 301 300 302 305 298 297 252 209 183 197 212 249 205 168 163 135 160 191 185 193 245 219 260 98 82 81 116 126 124 114 129 125 125 124 122 130 144 150
356 351 346 342 332 320 310 301 295 296 300 292 276 222 183 196 216 126 157 158 158 139 150 204 180 207 200 221 87 316 83 96 116 112 121 116 131 142 130 133 131 137 142 149 155
355 351 347 344 336 325 313 300 292 291 295 285 248 199 191 199 120 149 140 145 152 133 176 185 190 205 180 205 29 104 108 105 121 117 119 97 134 109 146 119 138 144 148 153 158
357 351 346 340 337 328 314 299 290 284 283 264 218 184 180 215 104 155 166 140 136 134 211 223 192 221 184 100 154 136 111 115 102 110 98 114 105 94 99 125 136 143 151 158 163
356 351 344 337 334 327 315 297 282 275 262 222 197 184 204 223 138 175 167 175 172 171 160 247 307 198 134 122 159 128 107 114 142 109 129 116 134 111 137 137 138 148 156 164 158
353 350 343 337 332 327 317 295 274 260 234 191 184 188 244 97 158 168 171 175 182 171 187 179 250 253 150 166 161 152 141 138 135 147 141 145 113 111 141 143 146 151 155 157 160
350 349 344 337 332 330 332 312 267 238 193 178 172 186 71 146 162 171 175 178 198 213 240 276 228 291 281 167 185 149 165 154 145 160 153 81 119 133 146 150 152 148 147 153 157
346 347 344 338 333 330 333 360 77 176 158 161 160 203 150 160 172 180 182 190 196 212 230 229 219 269 221 213 212 112 164 210 147 192 151 132 133 146 156 157 158 155 154 155 154
343 343 343 337 333 343 34 67 92 129 143 151 189 233 196 195 173 183 188 191 200 192 203 216 217 189 231 88 308 279 190 148 138 176 169 195 123 159 170 166 164 165 163 161 162
340 340 342 334 328 7 151 330 197 177 197 191 185 230 132 159 172 187 191 201 217 229 236 193 238 216 200 125 197 321 182 51 160 146 200 147 145 161 172 172 169 168 171 171 170
338 338 340 331 304 174 116 276 7 332 223 229 239 203 183 195 192 198 189 204 211 239 211 207 243 189 101 225 268 257 212 158 139 173 224 148 154 159 174 176 172 180 170 171 166
336 334 337 329 270 197 263 337 345 336 255 183 209 213 200 210 224 199 199 212 224 238 239 257 50 53 210 258 247 232 250 186 101 197 97 302 157 155 171 170 167 182 176 180 172
334 332 331 327 157 214 211 276 322 309 268 164 197 220 196 212 221 221 206 218 233 249 217 263 304 277 234 248 271 271 147 297 154 223 348 213 174 328 168 171 166 181 177 190 176
333 330 320 244 210 212 187 298 301 281 265 140 174 163 199 211 131 202 199 219 246 223 255 225 236 251 245 266 214 44 220 219 234 152 213 237 232 177 215 176 174 182 183 190 189
334 334 323 261 218 223 233 264 282 233 247 147 162 203 216 204 195 159 207 227 240 256 226 253 166 264 270 225 282 97 200 251 276 276 233 192 245 171 162 179 172 191 174 195 192
336 338 304 181 152 229 215 209 226 247 88 185 199 203 206 201 211 187 200 205 222 219 222 226 205 214 238 224 235 237 222 219 220 225 244 184 196 100 112 65 87 186 178 189 202
341 348 9 224 249 205 196 224 248 271 257 56 295 221 223 218 209 193 212 219 217 230 250 220 207 196 224 241 213 231 253 251 245 243 246 118 223 120 118 142 202 238 246 182 187
333 0 360 286 227 190 219 226 221 260 49 255 231 245 225 236 233 209 223 232 225 222 249 252 233 172 196 227 243 229 228 268 298 295 277 243 107 126 152 128 207 212 210 227 174
315 252 290 276 184 190 236 251 277 334 340 254 259 244 250 210 220 239 215 226 247 210 234 269 275 179 170 223 234 266 303 239 234 262 273 280 243 139 164 143 88 60 70 77 87
222 235 108 200 169 211 233 240 253 148 282 275 276 274 253 276 225 224 227 229 224 188 235 256 254 185 158 212 226 199 244 251 288 290 288 261 96 74 123 131 134 104 77 76 87
283 253 148 161 223 222 236 281 23 274 198 261 271 290 297 291 258 265 243 237 186 239 205 234 249 240 205 213 281 298 251 229 231 238 258 274 55 99 116 119 114 109 105 107 107
293 347 187 212 259 199 154 273 244 260 252 255 253 255 267 273 272 265 245 76 133 226 226 225 224 249 157 178 208 252 253 266 280 278 275 290 108 144 108 122 128 125 113 118 121
280 221 168 233 288 306 31 262 260 207 275 279 281 269 261 251 256 277 250 137 180 227 29 285 250 251 284 344 237 198 230 236 266 263 259 248 127 155 129 133 133 129 126 126 128
254 19 349 223 195 307 303 342 274 275 252 260 268 256 250 247 241 239 250 173 214 162 227 241 248 267 82 287 306 158 192 196 260 291 295 307 327 165 143 141 140 140 140 141 144
322 334 319 285 234 264 158 245 311 313 300 282 257 255 266 236 245 243 235 214 211 177 228 225 254 265 260 290 272 255 232 268 285 301 293 287 291 118 129 133 144 154 152 149 145
345 294 278 150 227 246 66 12 314 305 305 277 285 292 256 263 242 262 310 263 304 213 221 243 246 207 244 282 253 247 253 221 295 317 296 293 12 127 150 144 159 161 153 149 148
Height
1523 1520 1518 1516 1514 1513 1512 1511 1509 1509 1508 1507 1507 1507 1507 1507 1507 1507 1509 1509 1508 1508 1509 1512 1512 1512 1511 1507 1504 1502 1500 1498 1494 1501 1509 1510 1511 1514 1521 1525 1527 1528 1534 1544 1550
1523 1520 1518 1516 1514 1512 1511 1509 1508 1508 1507 1506 1506 1506 1506 1507 1506 1508 1507 1506 1508 1509 1510 1513 1512 1512 1508 1504 1502 1500 1492 1496 1494 1500 1505 1509 1512 1518 1521 1526 1529 1533 1540 1547 1552
1523 1520 1518 1515 1513 1511 1510 1508 1507 1507 1506 1505 1505 1505 1506 1506 1506 1506 1506 1506 1508 1510 1513 1512 1512 1511 1502 1499 1506 1495 1496 1497 1499 1504 1507 1510 1513 1517 1520 1526 1532 1537 1543 1549 1553
1522 1520 1517 1515 1513 1511 1508 1507 1506 1505 1505 1504 1504 1505 1505 1506 1500 1505 1506 1508 1509 1510 1513 1512 1510 1506 1496 1495 1499 1494 1496 1499 1505 1506 1510 1513 1515 1517 1517 1525 1533 1541 1546 1550 1553
1522 1519 1516 1514 1512 1509 1507 1506 1505 1504 1504 1504 1504 1504 1505 1505 1505 1505 1507 1509 1510 1511 1511 1508 1504 1498 1497 1496 1499 1494 1496 1501 1507 1509 1514 1517 1518 1523 1525 1530 1536 1542 1547 1551 1552
1522 1519 1516 1513 1511 1508 1506 1505 1504 1503 1503 1503 1503 1504 1504 1501 1506 1505 1507 1509 1513 1513 1511 1508 1501 1505 1497 1498 1505 1502 1497 1504 1510 1513 1516 1519 1523 1525 1529 1534 1539 1544 1547 1550 1552
1521 1518 1515 1512 1509 1507 1505 1504 1503 1502 1502 1502 1503 1504 1505 1505 1506 1506 1510 1512 1512 1512 1509 1509 1507 1503 1496 1501 1498 1498 1499 1503 1509 1513 1515 1518 1519 1526 1530 1535 1541 1544 1547 1550 1553
1520 1517 1513 1511 1508 1506 1505 1503 1502 1501 1502 1502 1503 1504 1501 1504 1507 1508 1510 1512 1512 1512 1511 1509 1508 1502 1494 1497 1494 1501 1497 1506 1507 1510 1515 1524 1529 1527 1532 1536 1540 1543 1547 1551 1554
1518 1516 1512 1510 1508 1506 1504 1503 1502 1501 1502 1503 1505 1504 1500 1503 1506 1507 1509 1509 1510 1510 1510 1509 1508 1503 1498 1489 1497 1504 1524 1525 1507 1504 1510 1524 1523 1526 1531 1534 1538 1542 1547 1550 1554
1517 1514 1511 1509 1507 1506 1505 1504 1503 1503 1504 1505 1505 1508 1500 1501 1503 1506 1508 1508 1508 1507 1508 1507 1503 1501 1497 1495 1533 1506 1502 1495 1502 1499 1504 1502 1511 1522 1527 1528 1534 1538 1544 1548 1552
1516 1513 1511 1508 1507 1506 1505 1505 1507 1506 1504 1497 1495 1494 1496 1499 1503 1504 1506 1507 1506 1504 1497 1498 1494 1493 1501 1491 1493 1487 1503 1503 1504 1493 1494 1494 1507 1516 1522 1524 1530 1534 1541 1544 1549
1514 1512 1510 1508 1507 1506 1506 1505 1504 1505 1499 1497 1496 1497 1497 1499 1499 1501 1504 1505 1503 1497 1492 1493 1491 1483 1486 1486 1488 1486 1493 1493 1489 1489 1492 1492 1507 1510 1517 1520 1527 1531 1535 1540 1546
1513 1510 1508 1506 1506 1507 1507 1506 1504 1504 1497 1490 1494 1495 1497 1499 1495 1496 1501 1499 1495 1495 1493 1487 1484 1483 1487 1487 1489 1483 1485 1491 1491 1489 1508 1518 1512 1508 1511 1517 1526 1529 1534 1536 1542
1512 1509 1507 1506 1508 1507 1507 1506 1506 1505 1492 1482 1490 1491 1494 1495 1493 1492 1495 1497 1494 1493 1490 1490 1483 1488 1487 1488 1483 1483 1475 1481 1485 1489 1509 1497 1555 1531 1506 1512 1522 1527 1532 1534 1538
1509 1506 1505 1504 1503 1507 1507 1507 1506 1506 1502 1481 1482 1487 1489 1491 1484 1491 1493 1494 1492 1490 1494 1493 1492 1490 1492 1485 1479 1488 1481 1482 1480 1492 1503 1500 1506 1515 1500 1507 1514 1522 1529 1532 1536
1507 1504 1502 1503 1504 1505 1505 1507 1507 1503 1500 1480 1478 1484 1485 1486 1485 1487 1494 1496 1493 1489 1486 1488 1493 1495 1487 1487 1487 1484 1487 1487 1482 1480 1500 1479 1488 1502 1498 1502 1507 1515 1523 1530 1533
1506 1503 1501 1502 1505 1504 1506 1507 1501 1498 1475 1475 1476 1476 1479 1480 1481 1487 1490 1492 1494 1502 1497 1487 1488 1489 1493 1493 1491 1490 1489 1506 1511 1504 1502 1468 1489 1501 1502 1508 1507 1511 1516 1528 1535
1504 1502 1501 1501 1501 1503 1506 1502 1506 1476 1472 1478 1479 1472 1478 1474 1478 1481 1484 1488 1485 1483 1484 1491 1496 1487 1490 1487 1490 1493 1485 1493 1515 1499 1487 1478 1500 1501 1505 1516 1517 1520 1519 1520 1530
1503 1502 1504 1503 1501 1503 1505 1498 1486 1477 1477 1484 1477 1482 1476 1471 1472 1476 1482 1479 1476 1479 1490 1481 1483 1468 1480 1484 1484 1486 1492 1475 1484 1474 1489 1476 1496 1503 1505 1511 1516 1517 1522 1522 1524
1504 1504 1503 1501 1501 1505 1500 1492 1477 1481 1487 1487 1487 1473 1477 1471 1474 1479 1475 1475 1475 1474 1481 1477 1489 1477 1483 1485 1485 1486 1478 1495 1493 1518 1518 1490 1484 1491 1504 1508 1517 1520 1523 1533 1531
1504 1499 1502 1503 1503 1503 1493 1483 1478 1486 1492 1487 1482 1479 1477 1473 1467 1474 1473 1470 1472 1473 1482 1480 1481 1479 1483 1490 1486 1490 1493 1486 1481 1481 1497 1501 1495 1485 1496 1505 1521 1533 1539 1540 1540
1505 1493 1501 1502 1500 1489 1485 1480 1488 1487 1492 1491 1489 1486 1482 1474 1476 1472 1471 1468 1470 1475 1484 1481 1477 1486 1483 1475 1478 1478 1477 1479 1492 1500 1487 1490 1498 1498 1505 1514 1529 1536 1541 1544 1546
1503 1497 1502 1502 1488 1482 1484 1489 1490 1489 1488 1488 1488 1487 1482 1484 1488 1476 1470 1470 1474 1478 1481 1478 1483 1489 1485 1483 1485 1488 1482 1482 1478 1476 1488 1494 1504 1501 1514 1522 1530 1539 1544 1548 1550
1507 1492 1496 1498 1494 1489 1487 1487 1487 1488 1490 1489 1487 1486 1486 1486 1483 1482 1471 1473 1478 1481 1484 1483 1476 1477 1482 1482 1467 1486 1483 1486 1484 1490 1488 1485 1495 1507 1514 1527 1537 1544 1547 1551 1554
1507 1496 1500 1487 1489 1491 1493 1489 1488 1486 1485 1486 1486 1485 1485 1487 1483 1482 1476 1471 1482 1486 1487 1485 1486 1473 1473 1481 1476 1476 1481 1486 1493 1491 1498 1486 1485 1498 1509 1525 1538 1544 1549 1552 1554
1513 1509 1503 1496 1499 1496 1493 1487 1490 1487 1488 1486 1486 1482 1478 1483 1478 1479 1475 1471 1480 1484 1484 1479 1484 1482 1484 1483 1483 1487 1487 1491 1493 1496 1497 1496 1496 1496 1510 1525 1538 1543 1546 1550 1553
1517 1515 1512 1498 1494 1492 1487 1492 1492 1489 1485 1485 1483 1482 1480 1478 1478 1474 1476 1473 1476 1480 1481 1479 1481 1488 1495 1488 1490 1500 1489 1489 1494 1496 1501 1506 1499 1503 1514 1522 1535 1541 1544 1550 1554